Powrót do katalogu

STARLINK-37357

AktywnyŁącznośćVLEO
NORAD 69517·PAYLOAD·🇺🇸 United States

Wystrzelony Jun 12, 2026 z Cape Canaveral Space Force Station

Loading…

Następne Przeloty (najbliższe 24 godziny)

TLE

ŚwieżeSource: CelesTrak SupGP

Epoka: Sep 14, 2026, 22:59 UTC

1 69517C 26133K   26257.95812500  .00042174  00000+0  12460-2 0  2574
2 69517  53.1563 255.6927 0001303  94.5117 221.9119 15.34370692    19

Śledź STARLINK-37357 w czasie rzeczywistym z AllMySat

Download on the App Store